User: anonymous   Login
Location: Oshawa
(43.9000°N, 78.8670°W)
Time: 13:28:57
(UTC-05:00)
Language:

Cosmos 1707 Rocket - Orbit

View from above orbital plane
View from above orbital plane
View from above satellite
View from above satellite

Ground track
Ground track

The orbit data is extracted from the following two-line orbital elements,

1 16327U 85113B   14330.20121917  .00000460  00000-0  53570-4 0  5205
2 16327 082.5363 245.3321 0019449 183.1848 287.8964 14.82942976563435
Epoch (UTC): 26 November 2014 04:49:45
Eccentricity: 0.0019449
inclination: 82.5363°
perigee height: 606 km
apogee height: 633 km
right ascension of ascending node: 245.3321°
argument of perigee: 183.1848°
revolutions per day: 14.82942976
mean anomaly at epoch: 287.8964°
orbit number at epoch: 56343

The dashed part of the orbit path shows where the satellite is in the earth's shadow,  

DLR